Alexandria, Egypt

4:54 PM EET on September 19, 2017 (GMT +0200)
Alexandria

Weather History for HEAX - June, 2013

Change the Weather History Date:

Tuesday, June 25, 2013

  Actual Average Record
Temperature  
Mean Temperature 79 °F -  
Max Temperature 88 °F 84 °F 89 °F (2006)
Min Temperature 70 °F 72 °F 70 °F (2013)
Cooling Degree Days 14    
Growing Degree Days 29 (Base 50)    
Moisture  
Dew Point 70 °F    
Average Humidity 75    
Maximum Humidity 94    
Minimum Humidity 48    
Precipitation  
Precipitation 0.00 in 0.00 in - ()
Sea Level Pressure  
Sea Level Pressure 29.82 in    
Wind  
Wind Speed 5 mph ()    
Max Wind Speed 15 mph    
Max Gust Speed -    
Visibility 6.2 miles    
Events      
Averages and records for this station are not official NWS values.
T = Trace of Precipitation, MM = Missing Value Source: Averaged Metar Reports

Daily Weather History Graph

Daily Weather History Graph

Search for Another Location

Airport or City:

Trip Planner

Search our weather history database for the weather conditions in past years. The results will help you decide how hot, cold, wet, or windy it might be!

Date:

Astronomy

Jun. 25, 2013 Rise Set
Actual Time 4:57 AM EET 7:08 PM EET
Civil Twilight 4:29 AM EET 7:35 PM EET
Nautical Twilight 3:55 AM EET 8:09 PM EET
Astronomical Twilight 3:19 AM EET 8:46 PM EET
Moon 8:51 PM EET (6/25) 7:04 AM EET (6/25)
Length of Visible Light 15h 06m
Length of Day
14h 10m
Waning Gibbous, 94% of the Moon is Illuminated
Jun 25
Waning Gibbous
Jun 30
Last Quarter
Jul 8
New
Jul 16
First Quarter
Jul 22
Full

Hourly Weather History & Observations

Time (EET) Temp. Heat Index Dew Point Humidity Pressure Visibility Wind Dir Wind Speed Gust Speed Precip Events Conditions
12:00 AM 75.2 °F - 69.8 °F 83% 29.80 in - NNW 2.3 mph - N/A   Clear
1:00 AM 73.4 °F - 69.8 °F 88% 29.80 in - NNW 2.3 mph - N/A   Clear
2:00 AM 72 °F - 69 °F 87% 29.81 in 6 mi Calm Calm - -  
2:00 AM 71.6 °F - 69.8 °F 94% 29.80 in - Calm Calm - N/A   Clear
3:00 AM 71.6 °F - 69.8 °F 94% 29.80 in - Calm Calm - N/A   Clear
4:00 AM 71.6 °F - 69.8 °F 94% 29.80 in - WNW 2.3 mph - N/A   Clear
5:00 AM 73.4 °F - 69.8 °F 88% 29.83 in 6.2 mi West 5.8 mph - N/A   Partly Cloudy
6:00 AM 73.4 °F - 69.8 °F 88% 29.83 in 6.2 mi West 5.8 mph - N/A   Partly Cloudy
8:00 AM 82 °F - 67 °F 51% 29.84 in 6 mi WNW 6.9 mph - -  
8:00 AM 82.4 °F 84.6 °F 66.2 °F 58% 29.83 in - WNW 6.9 mph - N/A   Clear
9:00 AM 84.2 °F 87.3 °F 68.0 °F 58% 29.83 in - WNW 9.2 mph - N/A   Clear
10:00 AM 84.2 °F 85.0 °F 62.6 °F 48% 29.83 in 6.2 mi WNW 9.2 mph - N/A   Partly Cloudy
11:00 AM 84.2 °F 87.3 °F 68.0 °F 58% 29.83 in 6.2 mi WNW 11.5 mph - N/A   Partly Cloudy
1:00 PM 87.8 °F 91.4 °F 68.0 °F 52% 29.83 in 6.2 mi NW 11.5 mph - N/A   Partly Cloudy
2:00 PM 86 °F - 71 °F 52% 29.83 in 6 mi NW 11.5 mph - -   Scattered Clouds
3:00 PM 84.2 °F 90.9 °F 73.4 °F 70% 29.83 in 6.2 mi NW 11.5 mph - N/A   Partly Cloudy
4:00 PM 84.2 °F 89.6 °F 71.6 °F 66% 29.83 in 6.2 mi NW 13.8 mph - N/A   Partly Cloudy
5:00 PM 82.4 °F 88.2 °F 73.4 °F 74% 29.83 in 6.2 mi WNW 15.0 mph - N/A   Partly Cloudy
6:00 PM 82.4 °F 88.2 °F 73.4 °F 74% 29.83 in 6.2 mi NW 13.8 mph - N/A   Partly Cloudy
7:00 PM 78.8 °F - 73.4 °F 83% 29.83 in 6.2 mi North 9.2 mph - N/A   Partly Cloudy
8:00 PM 78 °F - 72 °F 78% 29.84 in 6 mi NW 6.9 mph - -   Scattered Clouds
8:00 PM 78.8 °F - 71.6 °F 78% 29.83 in 6.2 mi NW 6.9 mph - N/A   Partly Cloudy
9:00 PM 78.8 °F - 73.4 °F 83% 29.83 in 6.2 mi WNW 6.9 mph - N/A   Partly Cloudy
10:00 PM 78.8 °F - 73.4 °F 83% 29.83 in 6.2 mi NW 13.8 mph - N/A   Partly Cloudy
11:00 PM 77.0 °F - 71.6 °F 83% 29.83 in - WNW 9.2 mph - N/A   Clear